Tracking 19572 objects as of 23-Feb-2019
HD Live streaming from Space Station
objects crossing your sky now

SCOUT G-1 DEB

Track SCOUT G-1 DEB now!
10-day predictions


NORAD ID: 19077
Int'l Code: 1988-033D
Perigee: 974.6 km
Apogee: 1,222.6 km
Inclination: 90.3 °
Period: 107.1 minutes
Semi major axis: 7469 km
RCS: 0.0065 m2 (small)
Launch date: April 26, 1988
Source: United States (US)
Launch site: AIR FORCE WESTERN TEST RANGE (AFWTR)

Note: This is SATELLITE DEBRIS
aabbcc
Your satellite tracking list
Your tracking list is empty




NASA's NSSDC Master Catalog

Two Line Element Set (TLE):
1 19077U 88033D   19053.66914194  .00000333  00000-0  50942-3 0  9996
2 19077  90.3280 266.7514 0165958  32.9472  14.3196 13.44796711505063
Source of the keplerian elements: AFSPC